Frederick, OK

10:05 PM CDT on September 19, 2017 (GMT -0500)
Frederick Municipal

Weather History for KFDR - November, 2012

Change the Weather History Date:

Wednesday, November 14, 2012

  Actual Average (KLTS) Record (KLTS)
Temperature  
Mean Temperature 47 °F -  
Max Temperature 64 °F 61 °F 78 °F (2016)
Min Temperature 30 °F 39 °F 19 °F (2000)
Degree Days  
Heating Degree Days 18    
Moisture  
Dew Point 22 °F    
Average Humidity 42    
Maximum Humidity 69    
Minimum Humidity 16    
Precipitation  
Precipitation 0.00 in - - ()
Sea Level Pressure  
Sea Level Pressure 30.28 in    
Wind  
Wind Speed 7 mph (South)    
Max Wind Speed 12 mph    
Max Gust Speed -    
Visibility 10 miles    
Events      
Averages and records for this station are not official NWS values.
T = Trace of Precipitation, MM = Missing Value Source: NWS Daily Summary

Daily Weather History Graph

Daily Weather History Graph

Search for Another Location

Airport or City:

Trip Planner

Search our weather history database for the weather conditions in past years. The results will help you decide how hot, cold, wet, or windy it might be!

Date:

Astronomy

Nov. 14, 2012 Rise Set
Actual Time 7:08 AM CST 5:31 PM CST
Civil Twilight 6:41 AM CST 5:58 PM CST
Nautical Twilight 6:11 AM CST 6:28 PM CST
Astronomical Twilight 5:41 AM CST 6:58 PM CST
Moon 7:57 AM CST (11/14) 6:24 PM CST (11/14)
Length of Visible Light 11h 16m
Length of Day
10h 23m
New Moon, 1% of the Moon is Illuminated
Nov 14
New Moon
Nov 20
First Quarter
Nov 28
Full
Dec 6
Last Quarter
Dec 13
New

Hourly Weather History & Observations

Time (CST) Temp. Windchill Dew Point Humidity Pressure Visibility Wind Dir Wind Speed Gust Speed Precip Events Conditions
12:53 AM 37.0 °F 30.4 °F 23.0 °F 57% 30.32 in 10.0 mi SE 9.2 mph - N/A   Clear
1:53 AM 36.0 °F 32.1 °F 24.1 °F 62% 30.32 in 10.0 mi South 4.6 mph - N/A   Clear
2:53 AM 35.1 °F - 23.0 °F 61% 30.33 in 10.0 mi Calm Calm - N/A   Clear
3:53 AM 35.1 °F - 23.0 °F 61% 30.33 in 10.0 mi Calm Calm - N/A   Clear
4:53 AM 33.1 °F - 21.9 °F 64% 30.33 in 10.0 mi Calm Calm - N/A   Clear
5:53 AM 30.9 °F 26.2 °F 21.0 °F 67% 30.34 in 10.0 mi ESE 4.6 mph - N/A   Clear
6:53 AM 30.9 °F 24.3 °F 21.9 °F 69% 30.34 in 10.0 mi SSE 6.9 mph - N/A   Clear
7:53 AM 33.1 °F 27.7 °F 21.9 °F 64% 30.35 in 10.0 mi South 5.8 mph - N/A   Clear
8:53 AM 41.0 °F 35.8 °F 23.0 °F 49% 30.36 in 10.0 mi South 8.1 mph - N/A   Clear
9:53 AM 48.9 °F - 24.1 °F 38% 30.35 in 10.0 mi South 10.4 mph - N/A   Clear
10:53 AM 55.9 °F - 21.9 °F 27% 30.34 in 10.0 mi SSW 10.4 mph - N/A   Clear
11:53 AM 59.0 °F - 21.9 °F 24% 30.32 in 10.0 mi SW 9.2 mph - N/A   Clear
12:53 PM 63.0 °F - 19.9 °F 19% 30.29 in 10.0 mi SSW 9.2 mph - N/A   Clear
1:53 PM 64.0 °F - 18.0 °F 17% 30.25 in 10.0 mi SW 10.4 mph - N/A   Clear
2:53 PM 64.9 °F - 18.0 °F 16% 30.23 in 10.0 mi SSW 11.5 mph - N/A   Clear
3:53 PM 64.9 °F - 19.0 °F 17% 30.21 in 10.0 mi SSW 11.5 mph - N/A   Clear
4:53 PM 63.0 °F - 19.0 °F 18% 30.21 in 10.0 mi South 10.4 mph - N/A   Clear
5:53 PM 53.1 °F - 19.9 °F 27% 30.22 in 10.0 mi SSE 9.2 mph - N/A   Clear
6:53 PM 48.0 °F - 21.0 °F 34% 30.22 in 10.0 mi SSE 10.4 mph - N/A   Clear
7:53 PM 46.0 °F 41.0 °F 21.9 °F 39% 30.23 in 10.0 mi SSE 10.4 mph - N/A   Clear
8:53 PM 44.1 °F 38.1 °F 23.0 °F 43% 30.22 in 10.0 mi SSE 11.5 mph - N/A   Clear
9:53 PM 41.0 °F 35.8 °F 21.9 °F 47% 30.22 in 10.0 mi SSE 8.1 mph - N/A   Clear
10:53 PM 39.0 °F 34.0 °F 23.0 °F 53% 30.21 in 10.0 mi SE 6.9 mph - N/A   Clear
11:53 PM 42.1 °F 36.1 °F 21.9 °F 45% 30.20 in 10.0 mi South 10.4 mph - N/A   Clear